Weather History for Rolla, MO

Change the Weather History Date:

Wednesday, June 26, 2013

  Actual Average Record
Temperature  
Mean Temperature 83 °F 75 °F  
Max Temperature 92 °F 85 °F 100 °F (1952)
Min Temperature 74 °F 65 °F 46 °F (2004)
Degree Days  
Heating Degree Days 0 0  
Month to date heating degree days 17 12  
Since 1 June heating degree days 17 12  
Since 1 July heating degree days 4957 4846  
Cooling Degree Days 18 10  
Month to date cooling degree days 181 192  
Year to date cooling degree days 288 299  
Since 1 June cooling degree days 181 192  
Growing Degree Days 32 (Base 50)    
Moisture  
Dew Point 71 °F    
Average Humidity 70    
Maximum Humidity 87    
Minimum Humidity 52    
Precipitation  
Precipitation 0.00 in 0.14 in 1.56 in (1948)
Month to date precipitation 3.20 4.09  
Year to date precipitation 24.50 20.90  
Sea Level Pressure  
Sea Level Pressure 29.79 in    
Wind  
Wind Speed 10 mph (SW)    
Max Wind Speed 20 mph    
Max Gust Speed 28 mph    
Visibility 10 miles    
Events      
T = Trace of Precipitation, MM = Missing Value Source: NWS Daily Summary

Daily Weather History Graph

Daily Weather History Graph

Search for Another Location

Airport:

Trip Planner

Search our weather history database for the weather conditions in past years. The results will help you decide how hot, cold, wet, or windy it might be!

Date:

Astronomy

Jun. 26, 2013 Rise Set
Actual Time 5:45 AM CDT 8:34 PM CDT
Civil Twilight 5:14 AM CDT 9:05 PM CDT
Nautical Twilight 4:34 AM CDT 9:45 PM CDT
Astronomical Twilight 3:49 AM CDT 10:30 PM CDT
Moon 11:01 PM CDT (6/26) 9:34 AM CDT (6/26)
Length of Visible Light 15h 51m
Length of Day
14h 48m
Waning Gibbous, 85% of the Moon is Illuminated
Jun 26
Waning Gibbous
Jun 29
Last Quarter
Jul 8
New
Jul 15
First Quarter
Jul 22
Full

Hourly Weather History & Observations

Time (CDT) Temp. Heat Index Dew Point Humidity Pressure Visibility Wind Dir Wind Speed Gust Speed Precip Events Conditions
12:53 AM 75.0 °F - 69.1 °F 82% 29.83 in 10.0 mi South 9.2 mph - N/A   Clear
1:53 AM 73.9 °F - 68.0 °F 82% 29.81 in 10.0 mi South 8.1 mph - N/A   Partly Cloudy
2:53 AM 73.9 °F - 68.0 °F 82% 29.78 in 10.0 mi South 11.5 mph - N/A   Clear
3:53 AM 73.9 °F - 69.1 °F 85% 29.77 in 10.0 mi South 11.5 mph - N/A   Clear
4:53 AM 75.0 °F - 69.1 °F 82% 29.77 in 10.0 mi South 12.7 mph - N/A   Clear
5:53 AM 73.9 °F - 69.1 °F 85% 29.77 in 10.0 mi SSW 10.4 mph - N/A   Clear
6:53 AM 75.0 °F - 69.1 °F 82% 29.78 in 10.0 mi South 10.4 mph - N/A   Clear
7:53 AM 75.9 °F - 70.0 °F 82% 29.80 in 10.0 mi SSW 11.5 mph - N/A   Clear
8:53 AM 79.0 °F - 71.1 °F 77% 29.80 in 10.0 mi SW 11.5 mph 20.7 mph N/A   Clear
9:53 AM 82.0 °F 86.7 °F 72.0 °F 71% 29.78 in 10.0 mi SW 15.0 mph - N/A   Clear
10:53 AM 84.9 °F 90.7 °F 72.0 °F 65% 29.78 in 10.0 mi WSW 15.0 mph - N/A   Clear
11:53 AM 87.1 °F 94.5 °F 73.0 °F 63% 29.80 in 10.0 mi WSW 15.0 mph - N/A   Clear
12:53 PM 88.0 °F 96.5 °F 73.9 °F 63% 29.80 in 10.0 mi WSW 11.5 mph 17.3 mph N/A   Clear
1:53 PM 89.1 °F 97.0 °F 73.0 °F 59% 29.79 in 10.0 mi WSW 8.1 mph 20.7 mph N/A   Partly Cloudy
2:53 PM 90.0 °F 100.2 °F 75.0 °F 61% 29.78 in 10.0 mi SW 11.5 mph - N/A   Partly Cloudy
3:53 PM 91.0 °F 99.3 °F 73.0 °F 55% 29.76 in 10.0 mi West 13.8 mph - N/A   Clear
4:53 PM 91.9 °F 100.7 °F 73.0 °F 54% 29.76 in 10.0 mi West 10.4 mph 18.4 mph N/A   Clear
5:53 PM 91.0 °F 98.2 °F 72.0 °F 53% 29.77 in 10.0 mi West 12.7 mph - N/A   Clear
6:53 PM 89.1 °F 97.0 °F 73.0 °F 59% 29.77 in 10.0 mi West 8.1 mph - N/A   Clear
7:53 PM 86.0 °F 93.8 °F 73.9 °F 67% 29.76 in 10.0 mi WSW 9.2 mph - N/A   Clear
8:53 PM 82.9 °F 89.4 °F 73.9 °F 74% 29.78 in 10.0 mi WNW 4.6 mph - N/A   Clear
9:53 PM 79.0 °F - 73.9 °F 84% 29.81 in 10.0 mi WNW 3.5 mph - N/A   Clear
10:53 PM 78.1 °F - 69.1 °F 74% 29.83 in 10.0 mi West 5.8 mph - N/A   Clear
11:53 PM 77.0 °F - 68.0 °F 74% 29.83 in 10.0 mi West 6.9 mph - N/A   Clear